This is the latest recevied weather packets stored in our database for station/object AI5KP-13. If no packets are shown the sender has not sent any weather packets the latest 10 day(s).
| Time | Temp. | Humidity | Pressure | Rain* | Wind** | Luminosity | Snow |
|---|---|---|---|---|---|---|---|
| 1777768231 | 17.22° C | 45% | 1018.8 hPa | 0 mm | - | 26 W/m² | - |
| 1777767928 | 17.22° C | 42% | 1018.5 hPa | 0 mm | - | 29 W/m² | - |
| 1777767625 | 17.78° C | 43% | 1018.5 hPa | 0 mm | - | 33 W/m² | - |
| 1777767321 | 17.78° C | 43% | 1018.7 hPa | 0 mm | - | 38 W/m² | - |
| 1777767019 | 17.78° C | 45% | 1018.9 hPa | 0 mm | - | 44 W/m² | - |
| 1777766716 | 18.33° C | 44% | 1018.7 hPa | 0 mm | - | 51 W/m² | - |
| 1777766413 | 18.33° C | 41% | 1018.7 hPa | 0 mm | - | 58 W/m² | - |
| 1777766109 | 18.33° C | 40% | 1018.9 hPa | 0 mm | - | 66 W/m² | - |
| 1777765808 | 18.89° C | 41% | 1018.5 hPa | 0 mm | - | 75 W/m² | - |
| 1777765503 | 18.89° C | 44% | 1018.7 hPa | 0 mm | - | 83 W/m² | - |
| 1777765201 | 18.89° C | 40% | 1018.8 hPa | 0 mm | - | 92 W/m² | - |
| 1777764896 | 19.44° C | 39% | 1018.8 hPa | 0 mm | - | 101 W/m² | - |
| 1777764593 | 19.44° C | 40% | 1018.7 hPa | 0 mm | - | 111 W/m² | - |
| 1777764289 | 19.44° C | 40% | 1018.7 hPa | 0 mm | - | 123 W/m² | - |
| 1777763986 | 18.89° C | 39% | 1018.7 hPa | 0 mm | - | 134 W/m² | - |
| 1777763684 | 18.89° C | 44% | 1018.8 hPa | 0 mm | - | 145 W/m² | - |
| 1777763382 | 20° C | 39% | 1018.7 hPa | 0 mm | - | 158 W/m² | - |
| 1777763079 | 20° C | 37% | 1018.7 hPa | 0 mm | - | 171 W/m² | - |
| 1777762777 | 20° C | 35% | 1018.7 hPa | 0 mm | - | 184 W/m² | - |
| 1777762473 | 19.44° C | 39% | 1018.4 hPa | 0 mm | - | 197 W/m² | - |
| 1777762170 | 20° C | 40% | 1018.5 hPa | 0 mm | - | 211 W/m² | - |
| 1777761866 | 20° C | 34% | 1018.5 hPa | 0 mm | - | 224 W/m² | - |
| 1777761563 | 19.44° C | 38% | 1018.7 hPa | 0 mm | - | 237 W/m² | - |
| 1777761261 | 20° C | 41% | 1018.9 hPa | 0 mm | - | 250 W/m² | - |
| 1777760959 | 19.44° C | 39% | 1018.5 hPa | 0 mm | - | 263 W/m² | - |
* Rain latest hour (hover to see other rain measurements)
** Current wind speed in m/s (hover to see current wind gust speed)